This is the latest recevied weather packets stored in our database for station/object K4ZZR. If no packets are shown the sender has not sent any weather packets the latest 1 day(s).
| Time | Temp. | Humidity | Pressure | Rain* | Wind** | Luminosity | Snow |
|---|---|---|---|---|---|---|---|
| 1778030147 | 24.44° C | 86% | 1015.2 hPa | 0 mm | - | 0 W/m² | - |
| 1778029843 | 24.44° C | 85% | 1015.2 hPa | 0 mm | - | 0 W/m² | - |
| 1778028329 | 24.44° C | 86% | 1015 hPa | 0 mm | - | 0 W/m² | - |
| 1778028026 | 24.44° C | 85% | 1014.9 hPa | 0 mm | - | 0 W/m² | - |
| 1778027722 | 24.44° C | 85% | 1014.9 hPa | 0 mm | - | 0 W/m² | - |
| 1778027418 | 24.44° C | 85% | 1014.7 hPa | 0 mm | - | 0 W/m² | - |
| 1778026811 | 24.44° C | 85% | 1014.8 hPa | 0 mm | - | 0 W/m² | - |
| 1778026507 | 24.44° C | 85% | 1014.8 hPa | 0 mm | - | 0 W/m² | - |
| 1778024993 | 25° C | 85% | 1014.9 hPa | 0 mm | - | 5 W/m² | - |
| 1778024085 | 25° C | 84% | 1015 hPa | 0 mm | - | 22 W/m² | - |
| 1778023782 | 25° C | 84% | 1014.7 hPa | 0 mm | - | 27 W/m² | - |
| 1778023177 | 25° C | 84% | 1014.8 hPa | 0 mm | - | 37 W/m² | - |
| 1778022874 | 25° C | 84% | 1014.9 hPa | 0 mm | - | 41 W/m² | - |
| 1778021663 | 25.56° C | 83% | 1014.8 hPa | 0 mm | - | 99 W/m² | - |
| 1778021056 | 25.56° C | 82% | 1014.5 hPa | 0 mm | - | 125 W/m² | - |
| 1778020753 | 25.56° C | 82% | 1014.6 hPa | 0 mm | - | 131 W/m² | - |
| 1778020146 | 25.56° C | 82% | 1015 hPa | 0 mm | - | 166 W/m² | - |
| 1778019539 | 25.56° C | 82% | 1014.9 hPa | 0 mm | - | 174 W/m² | - |
| 1778019236 | 25.56° C | 81% | 1014.7 hPa | 0 mm | - | 168 W/m² | - |
| 1778018933 | 25.56° C | 80% | 1014.6 hPa | 0 mm | - | 206 W/m² | - |
| 1778018630 | 25.56° C | 83% | 1014.3 hPa | 0 mm | - | 194 W/m² | - |
* Rain latest hour (hover to see other rain measurements)
** Current wind speed in m/s (hover to see current wind gust speed)